K1VL Weather Reports


Display with metric or nautical units.
time (UTC)temp
F
wind
direction
speed
MPH
gust
MPH
rain 1hr
in
rain 24hr
in
rain mn
in
humidity
%
barometer
mb
20260505001516 60 0.0 3.0 0.00 0.00 0.00 52 1008.2
20260505001016 60 225 1.0 4.0 0.00 0.00 0.00 50 1008.2
20260505000516 61 203 1.0 3.0 0.00 0.00 0.00 50 1008.1
20260505000016 60 225 2.0 8.0 0.00 0.00 0.00 49 1008.0
20260504235516 61 135 1.0 4.0 0.00 0.00 0.00 50 1008.0
20260504235016 61 270 1.0 4.0 0.00 0.00 0.00 49 1007.9
20260504234516 61 270 1.0 4.0 0.00 0.00 0.00 49 1007.8
20260504234016 61 338 2.0 9.0 0.00 0.00 0.00 49 1007.8
20260504233516 61 293 1.0 3.0 0.00 0.00 0.00 49 1007.7
20260504233016 62 248 1.0 7.0 0.00 0.00 0.00 48 1007.7
20260504232516 62 225 1.0 5.0 0.00 0.00 0.00 48 1007.6
20260504232016 62 113 1.0 3.0 0.00 0.00 0.00 48 1007.6
20260504231516 62 0.0 4.0 0.00 0.00 0.00 47 1007.5
20260504231016 62 225 3.0 8.0 0.00 0.00 0.00 47 1007.4
20260504230516 63 23 2.0 7.0 0.00 0.00 0.00 47 1007.4
20260504230016 63 293 2.0 6.0 0.00 0.00 0.00 47 1007.4
20260504225516 63 315 2.0 7.0 0.00 0.00 0.00 46 1007.3
20260504225016 64 315 2.0 6.0 0.00 0.00 0.00 46 1007.3
20260504224516 64 248 2.0 8.0 0.00 0.00 0.00 46 1007.2
20260504224016 64 248 2.0 6.0 0.00 0.00 0.00 44 1007.2
20260504223516 64 293 3.0 8.0 0.00 0.00 0.00 45 1007.2
20260504223016 65 270 3.0 12.0 0.00 0.00 0.00 44 1007.1
20260504222516 64 23 1.0 3.0 0.00 0.00 0.00 45 1007.1
20260504222016 64 158 2.0 7.0 0.00 0.00 0.00 44 1007.1
20260504221516 64 225 6.0 14.0 0.00 0.00 0.00 44 1007.1
20260504221016 64 248 4.0 9.0 0.00 0.00 0.00 45 1007.1
20260504220516 65 180 4.0 14.0 0.00 0.00 0.00 44 1007.2
20260504220016 65 293 2.0 9.0 0.00 0.00 0.00 43 1007.1
20260504215536 65 248 5.0 12.0 0.00 0.00 0.00 43 1007.1
20260504215016 66 248 4.0 14.0 0.00 0.00 0.00 43 1007.0
20260504214516 66 248 2.0 10.0 0.00 0.00 0.00 45 1007.0
20260504214016 65 293 5.0 11.0 0.00 0.00 0.00 42 1007.1
20260504213516 65 293 3.0 8.0 0.00 0.00 0.00 43 1007.0
20260504213016 65 180 6.0 13.0 0.00 0.00 0.00 43 1007.0
20260504212516 65 225 5.0 12.0 0.00 0.00 0.00 44 1007.0
20260504212016 65 203 5.0 10.0 0.00 0.00 0.00 44 1006.9
20260504211516 64 203 4.0 9.0 0.00 0.00 0.00 45 1007.0
20260504211016 64 180 5.0 14.0 0.00 0.00 0.00 44 1007.2
20260504210516 65 225 6.0 14.0 0.00 0.00 0.00 44 1007.2
20260504210016 66 203 4.0 11.0 0.00 0.00 0.00 44 1007.1
20260504205516 66 315 4.0 9.0 0.00 0.00 0.00 42 1007.1
20260504205016 65 225 2.0 9.0 0.00 0.00 0.00 43 1007.2
20260504204516 65 225 5.0 11.0 0.00 0.00 0.00 45 1007.1
20260504204016 64 338 3.0 11.0 0.00 0.00 0.00 46 1007.3
20260504203516 64 315 4.0 11.0 0.00 0.00 0.00 46 1007.2
20260504203016 64 315 6.0 13.0 0.00 0.00 0.00 44 1007.2
20260504202516 64 203 4.0 13.0 0.00 0.00 0.00 46 1007.2
20260504202036 63 248 4.0 13.0 0.00 0.00 0.00 46 1007.3
20260504201516 63 225 5.0 14.0 0.00 0.00 0.00 47 1007.4
20260504201016 63 225 4.0 10.0 0.00 0.00 0.00 46 1007.3
20260504200516 64 225 4.0 13.0 0.00 0.00 0.00 45 1007.5
20260504200016 65 315 3.0 11.0 0.00 0.00 0.00 44 1007.4
20260504195516 64 270 3.0 9.0 0.00 0.00 0.00 45 1007.4
20260504195016 64 180 4.0 13.0 0.00 0.00 0.00 46 1007.5
20260504194516 64 315 3.0 10.0 0.00 0.00 0.00 47 1007.5
20260504194016 64 315 8.0 19.0 0.00 0.00 0.00 46 1007.5
20260504193516 64 180 5.0 13.0 0.00 0.00 0.00 47 1007.6
20260504193017 64 225 5.0 17.0 0.00 0.00 0.00 45 1007.5
20260504192536 64 315 4.0 10.0 0.00 0.00 0.00 45 1007.6
20260504192016 64 225 4.0 12.0 0.00 0.00 0.00 48 1007.7
20260504191516 63 315 8.0 17.0 0.00 0.00 0.00 46 1007.7
20260504191016 63 293 4.0 11.0 0.00 0.00 0.00 47 1007.7
20260504190516 64 315 9.0 19.0 0.00 0.00 0.00 44 1007.6
20260504190016 64 315 4.0 13.0 0.00 0.00 0.00 46 1007.7
20260504185516 64 293 5.0 12.0 0.00 0.00 0.00 46 1007.7
20260504185036 63 180 5.0 12.0 0.00 0.00 0.00 47 1007.6
20260504184536 64 225 6.0 15.0 0.00 0.00 0.00 46 1007.5
20260504184016 63 293 4.0 9.0 0.00 0.00 0.00 48 1007.7
20260504183516 63 315 6.0 16.0 0.00 0.00 0.00 46 1007.4
20260504183016 63 315 5.0 17.0 0.00 0.00 0.00 48 1007.6
20260504182616 62 315 6.0 13.0 0.00 0.00 0.00 48 1007.5
20260504182016 62 315 6.0 15.0 0.00 0.00 0.00 48 1007.6
20260504181516 62 180 4.0 9.0 0.00 0.00 0.00 50 1007.7
20260504181016 62 315 5.0 12.0 0.00 0.00 0.00 48 1007.6
20260504180516 61 315 5.0 12.0 0.00 0.00 0.00 50 1007.6
20260504180036 60 225 6.0 18.0 0.00 0.00 0.00 52 1007.7
20260504175516 60 180 7.0 16.0 0.00 0.00 0.00 51 1007.6
20260504175016 60 180 6.0 14.0 0.00 0.00 0.00 50 1007.8
20260504174517 60 225 6.0 15.0 0.00 0.00 0.00 51 1007.7
20260504174016 60 315 7.0 16.0 0.00 0.00 0.00 50 1007.6
20260504173516 60 315 5.0 16.0 0.00 0.00 0.00 50 1007.7
20260504173036 60 315 5.0 15.0 0.00 0.00 0.00 50 1007.8
20260504172516 61 315 5.0 11.0 0.00 0.00 0.00 49 1007.9
20260504172037 60 180 6.0 13.0 0.00 0.00 0.00 52 1007.9
20260504171516 60 315 5.0 15.0 0.00 0.00 0.00 50 1008.0
20260504171016 60 315 5.0 13.0 0.00 0.00 0.00 53 1007.8
20260504170516 59 315 5.0 12.0 0.00 0.00 0.00 51 1007.8
20260504151016 55 248 4.0 12.0 0.00 0.00 0.00 52 1008.5
20260504150516 56 180 7.0 17.0 0.00 0.00 0.00 52 1008.4
20260504141016 55 270 4.0 12.0 0.00 0.00 0.00 53 1008.3
20260504140516 54 225 4.0 16.0 0.00 0.00 0.00 53 1008.3
20260504130516 54 315 6.0 15.0 0.00 0.00 0.00 54 1008.7
20260504110516 46 293 2.0 11.0 0.00 0.01 0.00 67 1009.0
20260504100516 44 293 1.0 4.0 0.00 0.01 0.00 80 1009.3
20260504081516 42 315 3.0 8.0 0.00 0.01 0.00 86 1008.7
20260504081037 42 225 2.0 8.0 0.00 0.01 0.00 86 1008.8
20260504080516 42 293 2.0 6.0 0.00 0.01 0.00 86 1008.7
20260504050536 43 315 2.0 6.0 0.00 0.01 0.00 72 1009.3
20260504050016 43 315 2.0 6.0 0.00 0.01 0.00 69 1009.4
20260504045537 43 315 3.0 9.0 0.00 0.01 0.00 67 1009.4
20260504045036 42 315 2.0 11.0 0.00 0.01 0.00 65 1009.5
20260504044516 42 315 1.0 6.0 0.00 0.01 0.00 63 1009.5
20260504044016 42 315 2.0 7.0 0.00 0.01 0.00 63 1009.6
20260504043556 42 315 3.0 9.0 0.00 0.01 0.00 61 1009.6
20260504043016 42 315 3.0 8.0 0.00 0.01 0.00 60 1009.6
20260504042516 42 315 1.0 7.0 0.00 0.01 0.00 61 1009.6
20260504042016 42 315 2.0 5.0 0.00 0.01 0.00 60 1009.7
20260504041516 41 315 2.0 7.0 0.00 0.01 0.00 60 1009.6
20260504041016 41 315 2.0 7.0 0.00 0.01 0.00 60 1009.6
20260504040516 40 315 2.0 5.0 0.00 0.01 0.00 61 1009.6
20260504040016 39 315 2.0 5.0 0.00 0.01 0.00 63 1009.6
20260504035516 38 315 1.0 6.0 0.00 0.01 0.01 66 1009.6
20260504035017 37 315 1.0 7.0 0.00 0.01 0.01 72 1009.5
20260504034516 35 315 1.0 3.0 0.00 0.01 0.01 78 1009.5
20260504034016 33 0.0 2.0 0.00 0.01 0.01 81 1009.5
20260504033516 33 0.0 0.0 0.00 0.01 0.01 87 1009.6
20260504033056 32 0.0 1.0 0.00 0.01 0.01 87 1009.7
20260504032516 32 0.0 1.0 0.00 0.01 0.01 87 1009.6
20260504032017 32 0.0 1.0 0.00 0.01 0.01 88 1009.6
20260504031516 31 0.0 2.0 0.00 0.01 0.01 88 1009.6
20260504031036 31 0.0 1.0 0.00 0.01 0.01 88 1009.6
20260504030536 31 0.0 1.0 0.00 0.01 0.01 89 1009.6
20260504030016 30 0.0 1.0 0.00 0.01 0.01 89 1009.6
20260504025516 30 0.0 1.0 0.00 0.01 0.01 89 1009.6
20260504025017 30 0.0 0.0 0.00 0.01 0.01 90 1009.6
20260504024516 30 0.0 1.0 0.00 0.01 0.01 89 1009.7
20260504024016 30 0.0 1.0 0.00 0.01 0.01 89 1009.7
20260504023516 30 0.0 0.0 0.00 0.01 0.01 89 1009.7
20260504023016 30 0.0 1.0 0.00 0.01 0.01 89 1009.6
20260504022516 30 0.0 1.0 0.00 0.01 0.01 88 1009.6
20260504022016 30 0.0 1.0 0.00 0.01 0.01 88 1009.7
20260504021516 30 0.0 1.0 0.00 0.01 0.01 88 1009.8
20260504021037 30 0.0 1.0 0.00 0.01 0.01 87 1009.8
20260504020537 30 0.0 1.0 0.00 0.01 0.01 86 1009.7
20260504020016 30 0.0 1.0 0.00 0.01 0.01 86 1009.7
20260504015516 30 0.0 0.0 0.00 0.01 0.01 85 1009.8
20260504015016 31 0.0 1.0 0.00 0.01 0.01 85 1009.7
20260504014517 31 0.0 1.0 0.00 0.01 0.01 84 1009.7
20260504014036 31 0.0 1.0 0.00 0.01 0.01 84 1009.7
20260504013557 32 0.0 1.0 0.00 0.01 0.01 84 1009.7
20260504013016 32 0.0 0.0 0.00 0.01 0.01 82 1009.6
20260504012036 33 0.0 0.0 0.00 0.01 0.01 81 1009.5
20260504011517 33 0.0 0.0 0.00 0.01 0.01 80 1009.5
20260504011016 33 0.0 0.0 0.00 0.01 0.01 79 1009.4
20260504010516 34 0.0 0.0 0.00 0.01 0.01 78 1009.3
20260504010019 34 0.0 0.0 0.00 0.01 0.01 77 1009.2
20260504005516 35 0.0 0.0 0.00 0.01 0.01 76 1009.2
20260504005016 35 0.0 0.0 0.00 0.01 0.01 74 1009.1
20260504004517 36 0.0 0.0 0.00 0.01 0.01 73 1009.0
20260504004017 37 0.0 0.0 0.00 0.01 0.01 71 1009.0
20260504003516 38 0.0 0.0 0.00 0.01 0.01 68 1008.9
20260504003016 39 0.0 1.0 0.00 0.01 0.01 62 1008.8
20260504002516 40 0.0 0.0 0.00 0.01 0.01 57 1008.8
20260504002016 41 0.0 2.0 0.00 0.01 0.01 54 1008.7